This is the latest recevied weather packets stored in our database for station/object F5LKO-13. If no packets are shown the sender has not sent any weather packets the latest 10 day(s).
| Time | Temp. | Humidity | Pressure | Rain* | Wind** | Luminosity | Snow |
|---|---|---|---|---|---|---|---|
| 1778068606 | 17.22° C | 99% | 1014.9 hPa | 0 mm | - | 17 W/m² | - |
| 1778068300 | 16.67° C | 99% | 1014.9 hPa | 0 mm | - | 17 W/m² | - |
| 1778067994 | 16.11° C | 99% | 1014.9 hPa | 0 mm | - | 11 W/m² | - |
| 1778067994 | 16.11° C | 99% | 1014.9 hPa | 0 mm | - | 11 W/m² | - |
| 1778067696 | 16.67° C | 99% | 1014.9 hPa | 0 mm | - | 3 W/m² | - |
| 1778067382 | 17.22° C | 99% | 1015 hPa | 0 mm | - | 3 W/m² | - |
| 1778067076 | 17.22° C | 99% | 1015 hPa | 0 mm | - | 20 W/m² | - |
| 1778066770 | 18.33° C | 99% | 1015 hPa | 0 mm | - | 6 W/m² | - |
| 1778066464 | 20° C | 99% | 1014.9 hPa | 0 mm | - | 5 W/m² | - |
| 1778066158 | 21.67° C | 99% | 1014.9 hPa | 0 mm | - | 12 W/m² | - |
| 1778065860 | 22.22° C | 99% | 1014.9 hPa | 0 mm | - | 107 W/m² | - |
| 1778065546 | 21.67° C | 99% | 1014.9 hPa | 0 mm | - | 94 W/m² | - |
| 1778065240 | 20.56° C | 99% | 1014.8 hPa | 0 mm | - | 76 W/m² | - |
| 1778064933 | 19.44° C | 99% | 1014.8 hPa | 0.51 mm | - | 91 W/m² | - |
| 1778064627 | 18.89° C | 99% | 1014.8 hPa | 0.51 mm | - | 103 W/m² | - |
| 1778064321 | 18.33° C | 99% | 1014.8 hPa | 0.51 mm | - | 40 W/m² | - |
| 1778064024 | 16.11° C | 99% | 1014.8 hPa | 0.51 mm | - | 30 W/m² | - |
| 1778063709 | 15° C | 99% | 1014.8 hPa | 0.51 mm | - | 52 W/m² | - |
| 1778063403 | 15° C | 99% | 1014.8 hPa | 0.51 mm | - | 9 W/m² | - |
| 1778063097 | 15° C | 99% | 1014.9 hPa | 0.51 mm | - | 6 W/m² | - |
| 1778062791 | 14.44° C | 99% | 1014.9 hPa | 0.51 mm | - | 7 W/m² | - |
| 1778062485 | 13.33° C | 99% | 1014.9 hPa | 0.51 mm | - | 8 W/m² | - |
| 1778062188 | 12.78° C | 99% | 1014.9 hPa | 0.51 mm | - | 5 W/m² | - |
| 1778061873 | 13.33° C | 99% | 1014.9 hPa | 0.51 mm | - | 2 W/m² | - |
| 1778061567 | 12.78° C | 99% | 1014.9 hPa | 0 mm | - | 2 W/m² | - |
* Rain latest hour (hover to see other rain measurements)
** Current wind speed in m/s (hover to see current wind gust speed)